Regional Weather Roundup
Issued by NWS Sioux Falls, SD

Home | Current Version | Previous Version | Text Only | Print | Product List | Glossary Off
Versions: 1 2 3 4 5 6 7 8 9 10 11 12 13 14 15 16 17 18 19 20 21 22 23 24 25 26 27 28 29 30 31 32 33 34 35 36 37 38 39 40 41 42 43 44 45 46 47 48 49 50

000
ASUS43 KFSD 200402
RWRFSD

WEATHER ROUNDUP FOR SE SOUTH DAKOTA/SW MINNESOTA/NW IOWA
NATIONAL WEATHER SERVICE SIOUX FALLS SD
1000 PM CST THU JAN 19 2017

NOTE: "FAIR" INDICATES FEW OR NO CLOUDS BELOW 12,000 FEET WITH NO
SIGNIFICANT WEATHER AND OR OBSTRUCTIONS TO VISIBILITY.


SDZ038>040-050-052>070-200500-
SOUTHEAST SOUTH DAKOTA

CITY           SKY/WX    TMP DP  RH WIND       PRES   REMARKS
BROOKINGS      MIX PCPN  35  35 100 SE13      29.57F VSB 1   WCI  26
CHAMBERLAIN    CLOUDY    39  38  97 S6        29.48S
HURON          CLOUDY    37  37 100 SE10      29.52F
MADISON        CLOUDY    36  36 100 S9          N/A
MITCHELL       CLOUDY    39  39 100 S14       29.54F
SIOUX FALLS    DRZL/FOG  38  38 100 SE12      29.60S VSB 3/4
WINNER         FAIR      37  34  89 S14       29.46F
YANKTON        CLOUDY    39  36  87 SE9       29.58S
$$

MNZ071-072-080-081-089-090-097-098-200500-
SOUTHWEST MINNESOTA

CITY           SKY/WX    TMP DP  RH WIND       PRES   REMARKS
FAIRMONT       FOG       34  33  96 S6        29.66F VSB 1/2 WCI  29
JACKSON        FOG       32  32 100 S6        29.64F VSB 1/2 WCI  26
LUVERNE        CLOUDY    36  34  93 SE10      29.61F FOG
MARSHALL       CLOUDY    35  34  96 SE6       29.61F FOG
MONTEVIDEO     FOG       34  34 100 S8        29.64F VSB 1   WCI  27
PIPESTONE      FOG       36  36 100 SE9       29.59F VSB 1/4
REDWOOD FALLS  CLOUDY    35  33  92 SE3       29.64F FOG
TRACY          PTCLDY    36  36  99 E8        29.62F FOG
WINDOM         CLOUDY    36  36 100 S7        29.63F FOG
WORTHINGTON    FOG       34  34 100 SE9       29.63F VSB 1/2 WCI  26
$$

IAZ001>003-012>014-020>022-031-032-NEZ013-014-SDZ071-200500-
NORTHWEST IOWA

CITY           SKY/WX    TMP DP  RH WIND       PRES   REMARKS
CHEROKEE       CLOUDY    36  36 100 S3        29.64F FOG
DENISON        CLOUDY    37  37 100 SE6       29.63F FOG
ESTHERVILLE    FOG       33  33 100 S7        29.65S VSB 1/4 WCI  27
LE MARS        CLOUDY    37  37 100 SE7G13    29.63F FOG
ORANGE CITY    FOG       36  36 100 SE6       29.62F VSB 1
SHELDON        MIX PCPN  36  36 100 SE9       29.61F VSB 3/4
SIOUX CITY     FOG       39  38  96 SE9       29.62F VSB 3/4
SPENCER        FOG       35  35 100 S6        29.64F VSB 1/2
STORM LAKE     FOG       34  34 100 SE8       29.64F VSB<1/4 WCI  27
$$

ABBREVIATIONS USED IN REMARKS
   TC - TEMPERATURE IN CELSIUS
  WCI - WIND CHILL INDEX
   HX - HEAT INDEX
  VSB - VISIBILITY





USA.gov is the U.S. government's official web portal to all federal, state and local government web resources and services.